This is the latest recevied weather packets stored in our database for station/object HS3UAA-1. If no packets are shown the sender has not sent any weather packets the latest 10 day(s).
| Time | Temp. | Humidity | Pressure | Rain* | Wind** | Luminosity | Snow |
|---|---|---|---|---|---|---|---|
| 1787624396 | 27.78° C | 49% | 996 hPa | - | - | 0 W/m² | - |
| 1787624074 | 27.78° C | 45% | 996 hPa | - | - | 0 W/m² | - |
| 1787623752 | 27.78° C | 46% | 996 hPa | - | - | 0 W/m² | - |
| 1787623430 | 27.78° C | 47% | 996 hPa | - | - | 0 W/m² | - |
| 1787623108 | 28.33° C | 50% | 996 hPa | - | - | 0 W/m² | - |
| 1787622786 | 27.78° C | 47% | 996 hPa | - | - | 0 W/m² | - |
| 1787622276 | 28.33° C | 51% | 996 hPa | - | - | 0 W/m² | - |
| 1787621954 | 27.78° C | 47% | 996 hPa | - | - | 0 W/m² | - |
| 1787621632 | 28.89° C | 48% | 996 hPa | - | - | 0 W/m² | - |
| 1787621310 | 28.33° C | 46% | 996 hPa | - | - | 0 W/m² | - |
| 1787620988 | 28.33° C | 51% | 996 hPa | - | - | 0 W/m² | - |
| 1787620666 | 27.78° C | 47% | 996 hPa | - | - | 0 W/m² | - |
| 1787620344 | 28.89° C | 48% | 996 hPa | - | - | 0 W/m² | - |
| 1787620022 | 28.33° C | 47% | 996 hPa | - | - | 0 W/m² | - |
| 1787619700 | 28.33° C | 50% | 996 hPa | - | - | 0 W/m² | - |
| 1787619377 | 28.89° C | 47% | 996 hPa | - | - | 0 W/m² | - |
| 1787619056 | 28.33° C | 45% | 996 hPa | - | - | 0 W/m² | - |
| 1787618722 | 28.89° C | 45% | 996 hPa | - | - | 0 W/m² | - |
| 1787618400 | 28.89° C | 50% | 996 hPa | - | - | 0 W/m² | - |
| 1787618078 | 28.89° C | 46% | 996 hPa | - | - | 0 W/m² | - |
| 1787617756 | 28.89° C | 44% | 996 hPa | - | - | 0 W/m² | - |
| 1787617434 | 29.44° C | 44% | 995 hPa | - | - | 0 W/m² | - |
| 1787617112 | 30° C | 45% | 995 hPa | - | - | 0 W/m² | - |
| 1787616789 | 30.56° C | 43% | 995 hPa | - | - | 0 W/m² | - |
| 1787616467 | 31.67° C | 46% | 995 hPa | - | - | 0 W/m² | - |
* Rain since midnight (hover to see other rain measurements)
** Current wind speed in m/s (hover to see current wind gust speed)